Flag for Canada Weather past 2 weeks in Gander, Newfoundland and Labrador, Canada

Now
64 °F

Overcast.


Feels Like: 64 °F
Forecast: N/A
Wind: 7 mph from Southeast

Location: Gander Int. Airport

Current Time: Aug 1, 2015 at 8:20:38 PM

Latest Report: Aug 1, 2015 at 7:30 PM


Visibility: 20 mi

Pressure: 29.73 "Hg

Humidity: 94%

Dew point: 63 °F

Location of GanderLocation

Historic Weather in Gander — Graph

°F

Gander temperature yesterday

Maximum temperature yesterday: 59 °F (at 1:30 PM)
Minimum temperature yesterday: 48 °F (at 2:30 AM)
Average temperature yesterday: 53 °F

Past Weeks' High & Low Weather Summary

 TemperatureHumidityPressure
High72 °F (Jul 29, 2:30 PM)100% (Jul 18, 6:30 AM)30.22 "Hg (Jul 18, 6:30 AM)
Low39 °F (Jul 25, 5:30 AM)38% (Jul 29, 2:30 PM)29.33 "Hg (Jul 23, 3:30 PM)
Average52 °F87%29.96 "Hg
* Reported Jul 17 6:30 PM — Aug 1 6:30 PM, Gander, Weather by CustomWeather, © 2015

Note: Actual official high and low records may vary slightly from our data, if they occured in-between our weather recording intervals... More about our weather records

Advertising

Gander weather history for previous 24 hours

 ConditionsComfort  
Time TempWeatherWind HumidityBarometerVisibility
6:30 PM
Sat, Aug 1
64 °FOvercast.8 mph94%29.74 "Hg20 mi
5:30 PM64 °FLow clouds.10 mph94%29.74 "Hg20 mi
4:30 PM64 °FLow clouds.9 mph88%29.75 "Hg20 mi
3:30 PM63 °FLow clouds.9 mph94%29.77 "Hg15 mi
2:30 PM61 °FLow clouds.10 mph94%29.76 "Hg15 mi
1:30 PM61 °FDrizzle. Low clouds.13 mph88%29.76 "Hg8 mi
12:30 PM57 °FDrizzle. Fog.12 mph94%29.78 "Hg4 mi
11:30 AM57 °FDrizzle. Fog.12 mph94%29.79 "Hg4 mi
10:30 AM55 °FDrizzle. Fog.9 mph100%29.80 "Hg5 mi
9:30 AM54 °FDrizzle. Fog.13 mph100%29.80 "Hg5 mi
8:30 AM52 °FLight rain. Fog.13 mph100%29.81 "Hg2 mi
7:30 AM52 °FSprinkles. Fog.12 mph100%29.81 "Hg2 mi
7:15 AM52 °FRain showers. Fog.14 mph100%29.80 "Hg2 mi
6:33 AM52 °FLots of rain. Fog.13 mph100%29.81 "Hg2 mi
6:22 AM52 °FSprinkles. Fog.13 mph100%29.82 "Hg2 mi
5:30 AM52 °FSprinkles. Fog.15 mph100%29.80 "Hg2 mi
5:19 AM52 °FSprinkles. Fog.15 mph100%29.81 "Hg2 mi
4:30 AM52 °FFog.13 mph94%29.81 "Hg6 mi
3:30 AM52 °FDrizzle. Fog.14 mph94%29.83 "Hg5 mi
2:30 AM50 °FDrizzle. Fog.15 mph100%29.85 "Hg3 mi
1:30 AM50 °FSprinkles. Fog.13 mph100%29.86 "Hg4 mi
12:30 AM50 °FFog.10 mph100%29.89 "Hg2 mi
11:30 PM
Fri, Jul 31
50 °FFog.13 mph100%29.90 "Hg3 mi
10:30 PM50 °FFog.12 mph100%29.91 "Hg3 mi
9:30 PM52 °FFog.13 mph94%29.92 "Hg5 mi
8:30 PM54 °FPartly sunny.13 mph94%29.90 "Hg20 mi
Weather by CustomWeather, © 2015

See weather overviewHow to use our weather pages